Location: Unspecified
(0.0000°N, 0.0000°E)
Time: 13:05:14
(UTC+00:00)

JUGNU - Pass Details

Date: 23 February 2020
Orbit: 836 x 864 km, 20.0° (Epoch: 01 April)

Event Time Altitude Azimuth Distance (km) Brightness Sun altitude
Exits shadow 04:43:26 12° 214° (SSW) 2,336 ? -22.1°
Maximum altitude 04:47:46 25° 162° (SSE) 1,645 ? -21.1°
Drops below altitude 10° 04:52:37 10° 108° (ESE) 2,485 ? -19.9°
Sets 04:55:38 0° 95° (E) 3,423 ? -19.2°
